This demonstration page uses our WeatherBlox Daily Observations layout. Learn more.

36.17497, -115.13722

Hourly Observations for February 17, 2016

Temp ( °F °C ) Dew Point ( °F °C ) Humidity (%) Winds ( mph kmh ) Pressure ( in mb ) Visibility ( mi km ) Precip ( " mm )
12:53 am 00:53 Clear 53 11.7 29 -1.7 40 40 NW 7 11 29.95 1014 10 16.0934 0 0
1:53 am 01:53 Clear 52 11.1 28 -2.2 40 40 NW 6 9 29.94 1014 10 16.0934 0 0
2:53 am 02:53 Clear 50 10 29 -1.7 44 44 NNW 3 6 29.93 1014 10 16.0934 0 0
3:53 am 03:53 Clear 50 10 28 -2.2 43 43 NNW 3 6 29.93 1014 10 16.0934 0 0
4:53 am 04:53 Clear 48 8.9 28 -2.2 46 46 NW 3 6 29.93 1014 10 16.0934 0 0
5:53 am 05:53 Clear 48 8.9 28 -2.2 46 46 WNW 5 7 29.93 1014 10 16.0934 0 0
6:53 am 06:53 Sunny 49 9.4 29 -1.7 46 46 WNW 6 9 29.94 1014 10 16.0934 0 0
7:53 am 07:53 Sunny 53 11.7 31 -0.6 43 43 Calm 29.94 1014 10 16.0934 0 0
8:53 am 08:53 Sunny 60 15.6 30 -1.1 32 32 Calm 29.94 1014 10 16.0934 0 0
9:53 am 09:53 Sunny 63 17.2 30 -1.1 29 29 SSE 5 7 29.91 1013 10 16.0934 0 0
10:53 am 10:53 Sunny 66 18.9 31 -0.6 27 27 ESE 5 7 29.89 1012 10 16.0934 0 0
11:53 am 11:53 Sunny 70 21.1 30 -1.1 23 23 E 7 11 29.84 1011 10 16.0934 0 0
12:53 pm 12:53 Sunny 74 23.3 30 -1.1 20 20 SE 13 20 29.79 1009 10 16.0934 0 0
1:53 pm 13:53 Sunny 75 23.9 31 -0.6 20 20 SE 8 13 29.75 1008 10 16.0934 0 0
2:53 pm 14:53 Sunny 77 25 30 -1.1 18 18 SE 10 17 29.73 1007 10 16.0934 0 0
3:53 pm 15:53 Sunny 78 25.6 27 -2.8 15 15 W 5 7 29.71 1006 10 16.0934 0 0
4:53 pm 16:53 Sunny 77 25 24 -4.4 14 14 WSW 10 17 29.72 1006 10 16.0934 0 0
5:53 pm 17:53 Mostly Clear 76 24.4 25 -3.9 15 15 WSW 14 22 29.71 1006 10 16.0934 0 0
6:53 pm 18:53 Clear 75 23.9 26 -3.3 16 16 SSW 14 22 29.72 1006 10 16.0934 0 0
7:53 pm 19:53 Mostly Cloudy 70 21.1 32 0 25 25 WSW 22 35 29.76 1008 10 16.0934 0 0
8:53 pm 20:53 Cloudy 65 18.3 38 3.3 37 37 W 14 22 29.81 1010 10 16.0934 0 0
9:53 pm 21:53 Cloudy 61 16.1 41 5 48 48 WNW 17 28 29.86 1011 10 16.0934 0 0
10:53 pm 22:53 Partly Cloudy 59 15 44 6.7 58 58 SE 7 11 29.84 1011 10 16.0934 0 0.0254
11:53 pm 23:53 Mostly Cloudy 58 14.4 44 6.7 60 60 SSE 14 22 29.81 1010 10 16.0934 0 0

Powered by AerisWeather